FW5918 Weather Reports


Display with metric or nautical units.
time (UTC)temp
F
wind
direction
speed
MPH
gust
MPH
rain 1hr
in
rain 24hr
in
rain mn
in
humidity
%
barometer
mb
20240417214835 70 224 9.0 17.0 0.00 0.00 0.00 86 1016.3
20240417213836 70 229 9.0 16.0 0.00 0.00 0.00 86 1016.3
20240417212834 70 232 10.0 15.0 0.00 0.00 0.00 85 1016.3
20240417211831 70 210 9.0 17.0 0.00 0.00 0.00 85 1016.4
20240417210832 70 218 9.0 16.0 0.00 0.00 0.00 84 1016.4
20240417205832 71 214 8.0 16.0 0.00 0.00 0.00 84 1016.4
20240417205758 70 247 9.0 17.0 0.00 0.00 0.00 83 1016.2
20240417203833 70 246 9.0 17.0 0.00 0.00 0.00 83 1016.2
20240417202831 71 229 9.0 17.0 0.00 0.00 0.00 83 1016.4
20240417201833 71 240 8.0 16.0 0.00 0.00 0.00 82 1016.5
20240417200829 71 213 9.0 18.0 0.00 0.00 0.00 82 1016.6
20240417195827 71 215 10.0 19.0 0.00 0.00 0.00 81 1016.6
20240417194825 71 228 10.0 17.0 0.00 0.00 0.00 81 1016.7
20240417193825 71 190 8.0 19.0 0.00 0.00 0.00 79 1016.9
20240417192826 72 205 9.0 20.0 0.00 0.00 0.00 78 1016.9
20240417191826 73 190 9.0 14.0 0.00 0.00 0.00 76 1017.0
20240417190826 74 167 9.0 16.0 0.00 0.00 0.00 74 1017.2
20240417185823 75 235 9.0 15.0 0.00 0.00 0.00 72 1017.2
20240417184820 75 250 9.0 17.0 0.00 0.00 0.00 73 1017.2
20240417183819 74 238 8.0 15.0 0.00 0.00 0.00 73 1017.6
20240417182819 74 219 8.0 13.0 0.00 0.00 0.00 74 1017.9
20240417181821 74 142 8.0 14.0 0.00 0.00 0.00 73 1018.1
20240417181745 74 186 7.0 13.0 0.00 0.00 0.00 73 1018.2
20240417175820 74 192 9.0 17.0 0.00 0.00 0.00 71 1018.3
20240417174819 74 198 10.0 17.0 0.00 0.00 0.00 70 1018.4
20240417174256 74 208 8.0 15.0 0.00 0.00 0.00 70 1018.4
20240417172816 73 196 6.0 14.0 0.00 0.00 0.00 71 1018.7
20240417171815 74 209 7.0 14.0 0.00 0.00 0.00 71 1018.8
20240417170817 74 211 8.0 15.0 0.00 0.00 0.00 71 1018.8
20240417165814 73 219 9.0 17.0 0.00 0.00 0.00 74 1018.8
20240417164813 72 221 11.0 18.0 0.00 0.00 0.00 76 1019.1
20240417163813 72 219 10.0 18.0 0.00 0.00 0.00 78 1019.3
20240417162812 73 208 9.0 19.0 0.00 0.00 0.00 79 1019.3
20240417162731 73 221 9.0 16.0 0.00 0.00 0.00 80 1019.6
20240417160810 72 211 10.0 17.0 0.00 0.00 0.00 81 1019.8
20240417160245 73 229 8.0 17.0 0.00 0.00 0.00 80 1019.9
20240417154811 72 204 10.0 16.0 0.00 0.00 0.00 80 1020.0
20240417153810 73 240 9.0 15.0 0.00 0.00 0.00 79 1020.0
20240417153248 73 209 9.0 16.0 0.00 0.00 0.00 78 1020.0
20240417151807 73 243 7.0 14.0 0.00 0.00 0.00 78 1020.1
20240417150808 71 236 7.0 13.0 0.00 0.00 0.00 78 1020.2
20240417145807 72 221 7.0 13.0 0.00 0.00 0.00 79 1020.3
20240417144806 72 205 7.0 12.0 0.00 0.00 0.00 79 1020.3
20240417143804 72 209 6.0 11.0 0.00 0.00 0.00 80 1020.4
20240417142803 71 224 6.0 13.0 0.00 0.00 0.00 82 1020.5
20240417141759 70 220 7.0 12.0 0.00 0.00 0.00 84 1020.5
20240417141234 70 219 7.0 11.0 0.00 0.00 0.00 86 1020.5
20240417135802 70 214 6.0 12.0 0.00 0.00 0.00 86 1020.3
20240417134759 70 209 6.0 12.0 0.00 0.00 0.00 87 1020.2
20240417133759 70 215 6.0 11.0 0.00 0.00 0.00 88 1020.4
20240417132759 69 192 5.0 12.0 0.00 0.00 0.00 89 1020.5
20240417131800 67 194 6.0 11.0 0.00 0.00 0.00 89 1020.4
20240417130758 67 198 6.0 14.0 0.00 0.00 0.00 90 1020.6
20240417130235 65 182 6.0 14.0 0.00 0.00 0.00 91 1020.5
20240417125720 63 185 7.0 13.0 0.00 0.00 0.00 92 1020.4
20240417123756 61 183 7.0 12.0 0.00 0.00 0.00 91 1020.4
20240417122756 60 162 6.0 10.0 0.00 0.00 0.00 91 1020.5
20240417121756 60 165 7.0 10.0 0.00 0.00 0.00 91 1020.6
20240417120756 60 171 7.0 10.0 0.00 0.00 0.00 91 1021.0
20240417115757 60 165 6.0 10.0 0.00 0.00 0.00 91 1021.1
20240417114757 60 150 5.0 9.0 0.00 0.00 0.00 92 1021.2
20240417114246 59 156 5.0 10.0 0.00 0.00 0.00 92 1021.2
20240417112756 59 162 4.0 8.0 0.00 0.00 0.00 92 1021.2
20240417111756 58 157 5.0 8.0 0.00 0.00 0.00 91 1021.2
20240417110757 58 157 5.0 8.0 0.00 0.00 0.00 91 1021.2
20240417110240 58 157 5.0 8.0 0.00 0.00 0.00 91 1021.1
20240417104746 58 159 4.0 7.0 0.00 0.00 0.00 91 1021.1
20240417103745 57 153 3.0 5.0 0.00 0.00 0.00 91 1021.1
20240417102744 57 154 4.0 6.0 0.00 0.00 0.00 91 1021.0
20240417101745 57 157 4.0 6.0 0.00 0.00 0.00 91 1020.9
20240417100745 57 158 3.0 7.0 0.00 0.00 0.00 90 1020.7
20240417095745 57 140 3.0 8.0 0.00 0.00 0.00 90 1020.7
20240417094742 58 140 4.0 8.0 0.00 0.00 0.00 90 1020.7
20240417093743 58 142 5.0 8.0 0.00 0.00 0.00 90 1020.8
20240417092743 57 152 0.0 6.0 0.00 0.00 0.00 90 1020.7
20240417091740 57 152 2.0 7.0 0.00 0.00 0.00 90 1020.8
20240417090739 57 153 4.0 7.0 0.00 0.00 0.00 90 1020.8
20240417085741 57 154 5.0 8.0 0.00 0.00 0.00 90 1020.6
20240417084739 57 154 6.0 8.0 0.00 0.00 0.00 90 1020.5
20240417083739 57 148 7.0 9.0 0.00 0.00 0.00 89 1020.6
20240417082740 57 142 7.0 9.0 0.00 0.00 0.00 89 1020.5
20240417081741 57 153 6.0 8.0 0.00 0.00 0.00 89 1020.7
20240417080740 57 161 4.0 8.0 0.00 0.00 0.00 89 1020.8
20240417080218 57 150 5.0 8.0 0.00 0.00 0.00 89 1020.8
20240417074740 57 142 7.0 12.0 0.00 0.00 0.00 89 1020.7
20240417073737 57 134 9.0 12.0 0.00 0.00 0.00 88 1020.6
20240417072737 57 126 10.0 12.0 0.00 0.00 0.00 88 1020.4
20240417071737 57 128 10.0 11.0 0.00 0.00 0.00 88 1020.4
20240417071220 57 121 10.0 11.0 0.00 0.00 0.00 88 1020.4
20240417065737 57 120 10.0 12.0 0.00 0.00 0.00 88 1020.5
20240417064737 57 120 11.0 13.0 0.00 0.00 0.00 88 1020.5
20240417064217 57 123 10.0 12.0 0.00 0.00 0.00 88 1020.6
20240417062738 57 119 9.0 11.0 0.00 0.00 0.00 88 1020.7
20240417061737 56 113 8.0 10.0 0.00 0.00 0.00 87 1020.9
20240417061217 56 113 8.0 10.0 0.00 0.00 0.00 87 1021.0
20240417055729 56 116 9.0 11.0 0.00 0.00 0.00 87 1021.0
20240417054727 56 111 9.0 11.0 0.00 0.00 0.00 87 1021.1
20240417053727 56 114 9.0 11.0 0.00 0.00 0.00 87 1021.2
20240417052729 56 113 8.0 10.0 0.00 0.00 0.00 87 1021.4
20240417051728 56 109 8.0 10.0 0.00 0.00 0.00 87 1021.6
20240417050725 56 109 8.0 10.0 0.00 0.00 0.00 87 1021.6
20240417045725 56 107 7.0 9.0 0.00 0.00 0.00 87 1021.8
20240417045702 56 111 7.0 8.0 0.00 0.00 0.00 87 1021.8
20240417043727 56 116 6.0 8.0 0.00 0.00 0.00 87 1021.8
20240417042725 56 121 8.0 9.0 0.00 0.00 0.00 87 1021.7
20240417041724 56 121 7.0 9.0 0.00 0.00 0.00 87 1021.7
20240417040723 56 118 7.0 8.0 0.00 0.00 0.00 87 1021.7
20240417040638 56 113 7.0 8.0 0.00 0.00 0.00 86 1021.8
20240417034723 56 118 7.0 8.0 0.00 0.00 0.00 86 1021.8
20240417033723 56 118 7.0 10.0 0.00 0.00 0.00 86 1021.9
20240417032723 56 117 8.0 10.0 0.00 0.00 0.00 86 1021.8
20240417032214 56 104 7.0 9.0 0.00 0.00 0.00 87 1021.9
20240417030721 56 94 5.0 8.0 0.00 0.00 0.00 87 1022.0
20240417025721 56 83 4.0 6.0 0.00 0.00 0.00 86 1022.1
20240417024723 56 81 4.0 7.0 0.00 0.00 0.00 86 1022.1
20240417023722 56 79 4.0 5.0 0.00 0.00 0.00 86 1022.1
20240417022721 56 78 4.0 5.0 0.00 0.00 0.00 86 1022.1
20240417021723 56 82 5.0 7.0 0.00 0.00 0.00 86 1022.1
20240417020722 56 76 4.0 5.0 0.00 0.00 0.00 86 1022.1
20240417015722 56 71 4.0 7.0 0.00 0.00 0.00 86 1022.2
20240417014722 56 66 6.0 9.0 0.00 0.00 0.00 86 1022.3
20240417013722 56 51 6.0 7.0 0.00 0.00 0.00 87 1022.4
20240417012721 55 63 6.0 8.0 0.00 0.00 0.00 86 1022.3
20240417011722 55 68 6.0 8.0 0.00 0.00 0.00 86 1022.3
20240417010722 55 55 6.0 7.0 0.00 0.00 0.00 86 1022.1
20240417005722 56 53 6.0 9.0 0.00 0.00 0.00 86 1022.0
20240417004721 55 54 7.0 10.0 0.00 0.00 0.00 86 1021.9
20240417004632 55 56 7.0 9.0 0.00 0.00 0.00 86 1021.9
20240417002719 55 53 6.0 9.0 0.00 0.00 0.00 86 1021.8
20240417001719 55 45 6.0 9.0 0.00 0.00 0.00 86 1021.7
20240417000720 55 41 7.0 9.0 0.00 0.00 0.00 85 1021.6
20240417000204 55 55 6.0 7.0 0.00 0.00 0.00 85 1021.3
20240416234721 55 53 6.0 7.0 0.00 0.00 0.00 85 1021.2
20240416233718 55 46 6.0 8.0 0.00 0.00 0.00 84 1021.3
20240416232717 56 36 6.0 9.0 0.00 0.00 0.00 84 1021.3
20240416231716 56 55 7.0 10.0 0.00 0.00 0.00 84 1021.3
20240416231153 56 53 9.0 10.0 0.00 0.00 0.00 83 1021.4
20240416225717 56 42 10.0 12.0 0.00 0.00 0.00 83 1021.5
20240416225209 56 42 10.0 12.0 0.00 0.00 0.00 82 1021.5
20240416223716 56 35 10.0 12.0 0.00 0.00 0.00 82 1021.6
20240416222715 56 38 11.0 14.0 0.00 0.00 0.00 82 1021.5
20240416221717 56 46 11.0 14.0 0.00 0.00 0.00 82 1021.5
20240416221154 56 42 11.0 14.0 0.00 0.00 0.00 82 1021.7
20240416215715 56 37 11.0 13.0 0.00 0.00 0.00 82 1021.7